Regional Weather Roundup
Issued by NWS

Home | Current Version | Previous Version | Text Only | Print | Product List | Glossary Off
Versions: 1 2 3 4 5 6 7 8 9 10 11 12 13 14 15 16 17 18 19 20 21 22 23 24 25 26 27 28 29 30 31 32 33 34 35 36 37 38 39 40 41 42 43 44 45 46 47 48 49 50

000
ASUS43 KMKX 260411
RWRWI

WISCONSIN REGIONAL WEATHER ROUNDUP
NATIONAL WEATHER SERVICE MILWAUKEE/SULLIVAN WI
1100 PM CDT TUE APR 25 2017

NOTE: "FAIR" INDICATES FEW OR NO CLOUDS BELOW 12,000 FEET WITH NO
SIGNIFICANT WEATHER AND/OR OBSTRUCTIONS TO VISIBILITY.

WIZ001-002-006>008-014>016-023>028-260500-
NORTHWEST WISCONSIN

CITY           SKY/WX    TMP DP  RH WIND       PRES   REMARKS
SUPERIOR ARPT  LGT RAIN  38  38  99 E12G17    29.76S WCI  31
ASHLAND        LGT RAIN  34  32  92 NE18G30   29.77S WCI  23
HAYWARD        RAIN      37  35  92 NE15      29.67F FOG     WCI  28
SIREN          LGT RAIN  41  39  94 NE10G20   29.65F
CUMBERLAND     CLOUDY    43  41  93 N10       29.59F
RICE LAKE      CLOUDY    46  44  93 N18       29.60S
CHETEK         CLOUDY    51  50  95 NE8       29.58S
LADYSMITH      CLOUDY    45  42  91 NE12      29.63S
EAU CLAIRE     LGT RAIN  55  53  93 NE9       29.54F
MENOMONIE      CLOUDY    55  55 100 N5        29.55S
NEW RICHMOND   CLOUDY    50  49  97 NE16      29.55F
OSCEOLA        CLOUDY    48  48 100 N13G18    29.59F
$$

WIZ003>005-009-010-017-018-260500-
NORTH CENTRAL WISCONSIN

CITY           SKY/WX    TMP DP  RH WIND       PRES   REMARKS
MANITOWISH WTR DRIZZLE   37  37 100 N12G17    29.67F WCI  29
ARBOR VITAE    DRIZZLE   43  41  93 N8        29.65F
WOODRUFF       DRIZZLE   43  41  93 N8        29.65F
RHINELANDER    CLOUDY    56  54  93 NE6       29.63F
EAGLE RIVER    LGT RAIN  46  45  96 N8        29.66F
LAND O LAKES   LGT RAIN  40  39  94 N9        29.72R WCI  34
PHILLIPS       CLOUDY    43  43 100 N12       29.63F
TOMAHAWK       RAIN      54  52  94 NE5       29.61F
MEDFORD        LGT RAIN  53  52  95 N7        29.58F
MERRILL        DRIZZLE   55  55 100 NE3       29.60F
$$

WIZ029-030-035-036-043>047-260500-
CENTRAL WISCONSIN

CITY           SKY/WX    TMP DP  RH WIND       PRES   REMARKS
WAUSAU         CLOUDY    57  51  80 NE8       29.57F
MOSINEE        CLOUDY    55  52  88 NE9       29.58F
MARSHFIELD     CLOUDY    56  51  84 NE13      29.54F
STEVENS POINT  LGT RAIN  58  49  72 NE7       29.56F
WAUPACA        CLOUDY    65  53  65 E10G16    29.56F
WAUTOMA        CLOUDY    64  53  67 E7        29.53F
WISC RAPIDS    CLOUDY    61  50  67 NE6       29.54F
CAMP DOUGLAS   CLOUDY    59  50  72 CALM      29.50F
$$

WIZ011>013-019>022-031-037>040-048>050-260500-
NORTHEAST WISCONSIN

CITY           SKY/WX    TMP DP  RH WIND       PRES   REMARKS
ANTIGO         CLOUDY    55  51  86 NE6       29.62S
SHAWANO        CLOUDY    61  52  71 NE7       29.60F
OCONTO         CLOUDY    52  47  84 E8        29.63S
STURGEON BAY   CLOUDY    52  46  80 E10       29.64F
GREEN BAY      CLOUDY    65  54  67 SE13      29.59F
MANITOWOC      CLOUDY    53  48  83 E3        29.62S
APPLETON       MOCLDY    61  48  63 SE8       29.57F
CLINTONVILLE   DRIZZLE   61  50  67 E5        29.58F
OSHKOSH        CLOUDY    62  52  69 SE10      29.56F
$$

WIZ032>034-041-042-053>061-260500-
SOUTHWEST WISCONSIN

CITY           SKY/WX    TMP DP  RH WIND       PRES   REMARKS
LA CROSSE      LGT RAIN  59  53  80 NW5       29.48F
SPARTA         CLOUDY    58  53  83 E5        29.50F
VIROQUA        CLOUDY    58  50  72 NE9       29.48F
BOSCOBEL       LGT RAIN  65  50  58 CALM      29.46F
PRAIRIE DU CHI LGT RAIN  64  49  57 S12       29.48R
PLATTEVILLE    CLOUDY    66  49  54 SE8       29.47F
$$

WIZ056-057-062-063-064-067-068-260500-
SOUTH CENTRAL WISCONSIN

CITY           SKY/WX    TMP DP  RH WIND       PRES   REMARKS
REEDSBURG      CLOUDY    65  51  59 E6        29.49F
BARABOO/DELLS  CLOUDY    65  49  56 E12G17    29.49F
LONE ROCK      CLOUDY    66  51  58 E10       29.46F
MINERAL POINT  CLOUDY    68  45  42 SE10      29.47F
MADISON        CLOUDY    65  50  58 SE10      29.50F
MIDDLETON      CLOUDY    66  51  57 E9        29.50F
WATERTOWN      CLOUDY    64  53  66 SE12G18   29.53F
MONROE         CLOUDY    66  46  48 SE14      29.49F
JANESVILLE     MOCLDY    64  50  59 SE9       29.51F
$$

WIZ051-052-058>065-066-070>072-260500-
SOUTHEAST WISCONSIN

CITY           SKY/WX    TMP DP  RH WIND       PRES   REMARKS
MILWAUKEE      CLOUDY    61  52  72 SE13      29.58F
WAUKESHA       CLOUDY    61  50  67 SE9       29.58F
MILWAUKEE/TIMM CLOUDY    59  46  63 E3        29.58F
RACINE         CLOUDY    59  49  69 SE9       29.60F
KENOSHA        CLOUDY    61  51  70 SE9       29.57F
FOND DU LAC    CLOUDY    64  50  60 SE18      29.56F
SHEBOYGAN      CLOUDY    53  49  86 CALM      29.60F
WEST BEND      CLOUDY    55  50  82 SE5       29.58F
JUNEAU         CLOUDY    63  52  68 E13       29.55F
$$

LSZ147-162-260500-
LAKE SUPERIOR

STATION/POSITION TIME  TEMP    WIND        PRES    WAVE
                       AIR SEA DIR/SP/G            HT/PER
                 (UTC) (F)     (DEG/KT/KT) (MB)    (FT/S)
DEVILS ISLAND    0400   36      70/ 17/ 19 1010.0R
SAXON HARBOR     0330   36      40/ 19/ 22 1008.1R
$$

LMZ867-665-643>646-260500-
LAKE MICHIGAN

STATION/POSITION TIME  TEMP    WIND        PRES    WAVE
                       AIR SEA DIR/SP/G            HT/PER
                 (UTC) (F)     (DEG/KT/KT) (MB)    (FT/S)
CHAMBERS ISLAND  0340   42     360/  8/  9 1004.4S
N MID LAKE BUOY  0350   40 37   80/ 10/ 10 1005.6F   1/ 3
NORTHPORT PIER   0340   42      90/  6/  7 1004.7F
SISTER BAY       0221   48     100/ 13/ 18   N/A
KEWAUNEE LAKESHO 0348   46      30/  6/  8 1003.3F
SHEBOYGAN LAKESH 0400   54      90/  3/  6 1002.3F
PORT WASHINGTON  0330   56     160/  3/  5 1003.4S
MILWAUKEE LAKESH 0350   53     180/  2/  3   N/A
S MID LAKE BUOY  0350   49 42   80/ 10/ 10 1002.7F   0
KENOSHA   LAKESH 0400   53     170/ 10/ 12 1001.7
$$

TC  - TEMPERATURE IN CELSIUS
VSB - VISIBILITY IN STATUTE MILES
WCI - WIND CHILL INDEX
HX  - HEAT INDEX





USA.gov is the U.S. government's official web portal to all federal, state and local government web resources and services.